Ilulissat

KL  EN  DA
ASIAQ
Weather Now GREENLAND SURVEY
Updated [WGT/WGST] Temperature [°C] Wind [m/s] Air pressure [hPa] Relative humidity [%] Precipitation [mm]
Present Wind chill Speed Max
21.01 20:00n/an/a7,9 ⇖11,7995n/an/a
21.01 19:00-11,4-21,17,8 ⇖11,1995650,0
21.01 18:00-11,8-22,29,1 ⇖13,1994750,1
21.01 17:00-11,6-21,58,3 ⇖11,8994680,0
21.01 16:00-12,0-21,77,6 ⇖9,4994660,0
21.01 15:00-11,1-20,67,8 ⇖9,4994660,0
21.01 14:00-10,7-19,97,4 ⇖9,5994710,0
21.01 13:00-10,4-20,28,6 ⇖10,7994720,0
21.01 12:00-9,6-19,59,3 ⇑12,2994510,0
21.01 11:00-9,4-18,98,8 ⇑11,7993490,0
21.01 10:00-9,5-19,710,3 ⇑14,1993580,0
21.01 09:00-9,3-20,011,7 ⇑15,6992680,0
21.01 08:00-9,6-20,712,6 ⇑16,0990930,3
21.01 07:00-9,4-20,612,8 ⇑16,7989900,2
21.01 06:00-9,4-20,011,4 ⇑14,2989790,1
21.01 05:00-9,1-19,110,0 ⇑13,7989790,0
21.01 04:00-9,2-19,19,6 ⇑12,4988700,0
21.01 03:00-9,0-18,99,8 ⇑12,5987710,1
21.01 02:00-8,3-17,59,0 ⇗11,6986730,0
21.01 01:00-7,8-16,68,2 ⇗10,7985880,0
21.01 00:00-7,1-15,78,2 ⇗11,1985730,0
20.01 23:00-6,8-15,07,6 ⇗9,7984810,0
20.01 22:00-6,4-14,47,5 ⇗10,2983780,0
20.01 21:00-5,9-13,46,8 ⇗9,4983770,0
20.01 20:00-5,9-13,67,1 ⇗9,2983830,0
Position: (69.2402777777,-51.06611111)

[Back]